Location: Absher
(46.5583°N, 107.9840°W)
Time: 18:24:45
(UTC+00:00)

Envisat - Pass Details

Date: 06 December 2022
Orbit: 763 x 765 km, 98.2° (Epoch: 06 February)

Event Time Altitude Azimuth Distance (km) Brightness Sun altitude
Rises 10:48:56 0° 20° (NNE) 3,244 6.6 -39.0°
Reaches altitude 10° 10:51:25 10° 29° (NNE) 2,313 5.8 -38.5°
Enters shadow 10:51:47 12° 31° (NNE) 2,183 5.7 -38.5°
